Simultaneous Nadir Overpasses (SNOs) Predictions

Prediction of SNOs between GOES-15 and TERRA Satellite Orbit:

Table of predicted SNOs for the next 14.0 days since TLE Epoch: 5/26/2012
Index Date Time (GOES-15) GOES-15 Lat,Lon TERRA Lat,Lon Distance(km) Time Diff (sec)
1 05/26/2012 07:21:48 0.11,-135.42 0.54,-133.41 227.65 80
2 05/26/2012 19:45:43 -0.09,-135.44 0.56,-138.57 355.41 80
3 05/28/2012 19:33:30 -0.10,-135.43 -0.09,-135.61 20.49 80
4 05/30/2012 19:18:36 -0.11,-135.40 -0.69,-132.64 314.35 80
5 05/31/2012 07:42:39 0.08,-135.37 -0.45,-137.82 278.91 80
6 06/02/2012 07:27:45 0.09,-135.34 0.16,-134.85 54.79 80
7 06/04/2012 07:15:31 0.09,-135.30 0.79,-131.88 387.57 80
8 06/04/2012 19:39:26 -0.07,-135.31 0.30,-137.04 196.35 80
9 06/06/2012 19:24:32
